STARLINK-33570, 62776

Orbit data source: Space-Track

STARLINK-33570, 62776 is a payload satellite owned by SpaceX/Seattle (US) in LEO that was launched on Tue, 21 Jan 2025 UTC via an FALCON 9 launch vehicle from the Air Force Western Test Range (AFWTR). Payload-class satellites include a variety of spacecraft equipped with specific instruments for various scientific and technological missions. These include communications satellites like Starlink; space stations such as the ISS; scientific satellites like the Hubble; Earth observation satellites from companies like Planet Labs, Umbra, and HawkEye 360; GPS; miniature CubeSats for education and research; and military/defense satellites.

Loading next visibility...
Identifier
62776, 2025-015U
Orbit
LEO
Country
Flag of USUS
Related business
Manufacturer
SpaceX/Seattle
Mission
Operational Commercial Communications
Bus & Motor
STARLINK V2MO, Unknown motor
Mass
575 kg wet, ~530 kg dry
Launch date (UTC)
2025-01-21 (1 year ago)
Launch vehicle
FALCON 9
Launch site
Air Force Western Test Range (AFWTR)
Object type
Payload
Rocket body
Debris
Shape & HBR
Box + 2 Pan, 17.7 m
Radar Cross Section
36.964 m², Large (>1 m²)

Expand to show TLE details & history
Last TLE update: 9 hours ago

TLE from 9 hours ago
0 STARLINK-33570
1 62776U 25015U   26171.45624963  .00013188  00000-0  40071-3 0  9993
2 62776  53.1578 203.8059 0001194  85.0570 275.0569 15.34404433 80177
Epoch: 2026-06-20T10:56Z
TLE epoch observation values (Epoch: 2026-06-20T10:56:59.968Z)
Latitude
0.00001°
Longitude
130.88543°
Altitude
463.519 km
Speed
7.636 km/s
True Right ascension
13h 35m 13s
True Declination
0° 00' 00"
Sunlit
Object was in full shadow at epoch
Visualization orbit readout
Latitude
Unknown
Longitude
Unknown
Altitude
Unknown
Speed
Unknown
Apparent Right ascension
Unknown
Apparent Declination
Unknown
Sunlit
N/A
Visualization observer readout
Local Sidereal Time
07:13:35
Azimuth
Unknown
Elevation
Unknown
Doppler factor
Unknown
Orbital elements
Apogee altitude
463.764 km
Perigee altitude
462.13 km
Semi-major axis
6,841.084 km
Eccentricity
0.00012
Inclination
53.1578°
RAAN
203.8059°
Arg. of periapsis
85.057°
True anomaly
275.04327°
Mean anomaly
275.0569°
Eccentric anomaly
275.05009°
Mean motion
3.8358 °/min
Orbital period
93.85 mins
BSTAR
0.00040071
Loading maneuver chart data...
Computing Atmospheric mass density...
Loading historical data...
Loading historical data...
Loading historical data...
Loading historical data...
Loading historical data...
Loading historical data...
Loading historical data...

Documentation

Showing up to 5 results
|